Regional Weather Roundup
Issued by NWS

Home | Current Version | Previous Version | Text Only | Print | Product List | Glossary Off
Versions: 1 2 3 4 5 6 7 8 9 10 11 12 13 14 15 16 17 18 19 20 21 22 23 24 25 26 27 28 29 30 31 32 33 34 35 36 37 38 39 40 41 42 43 44 45 46 47 48 49 50

000
ASUS44 KMEG 230710
RWRTN
TENNESSEE HOURLY STATE WEATHER ROUNDUP
NATIONAL WEATHER SERVICE MEMPHIS TN
200 AM CDT SAT JUL 23 2016

TNZ002-004-019-021-049-052-054-088>092-230800-
WEST TENNESSEE

CITY           SKY/WX    TMP DP  RH WIND       PRES   REMARKS
MEMPHIS INTL   CLOUDY    81  72  74 S6        29.97F THUNDER
NWS MEMPHIS      N/A     77 N/A N/A MISG        N/A
JACKSON        MOCLDY    75  73  93 CALM      30.00R
DYERSBURG      PTCLDY    73  72  94 MISG      30.00S
UNION CITY     PTCLDY    75  75 100 E3        29.99S
PARIS          CLOUDY    72  72 100 SW8       30.00F
LEXINGTON      MOCLDY    73  73 100 NE3       30.00R
$$

TNZ008-025-027-028-033-062-065-066-230800-
NORTH MIDDLE TENNESSEE

CITY           SKY/WX    TMP DP  RH WIND       PRES   REMARKS
NASHVILLE      MOCLDY    76  71  85 CALM      30.01S
CLARKSVILLE    PTCLDY    74  72  93 CALM      30.01S
SMYRNA         CLEAR     78  76  94 CALM      30.01F
COOKEVILLE     CLEAR     75  75 100 CALM      30.02S
CROSSVILLE     PTCLDY    75  73  93 CALM      30.08F
$$

TNZ061-075-076-078-094-096-097-230800-
SOUTH MIDDLE TENNESSEE

CITY           SKY/WX    TMP DP  RH WIND       PRES   REMARKS
FAYETTEVILLE   CLEAR     75  72  88 CALM      30.02F
TULLAHOMA      CLEAR     77  73  88 CALM      30.04S
WINCHESTER     CLEAR     75  72  88 S3        30.03S
MCMINNVILLE    CLEAR     75  75 100 CALM      30.03F
COLUMBIA       PTCLDY   N/A N/A N/A CALM      30.01S
SHELBYVILLE    PTCLDY    77  77 100 CALM      30.02F
$$

TNZ017-018-042-046-047-230800-
NORTHEAST TENNESSEE

CITY           SKY/WX    TMP DP  RH WIND       PRES   REMARKS
TRI CITIES     CLOUDY    73  69  87 CALM      30.07S
ELIZABETHTON   CLOUDY    72  66  83 NE6       30.07F
$$

TNZ012-013-036-069-073-074-230800-
CENTRAL EAST TENNESSEE

CITY           SKY/WX    TMP DP  RH WIND       PRES   REMARKS
KNOXVILLE      NOT AVBL
OAK RIDGE      CLOUDY    79  73  82 CALM      30.03F
GATLINBURG     CLEAR     75  70  83 CALM      30.02F
MORRISTOWN     PTCLDY    77  72  83 CALM      30.04F
$$

TNZ083-085-099-230800-
SOUTHEAST TENNESSEE

CITY           SKY/WX    TMP DP  RH WIND       PRES   REMARKS
CHATTANOOGA    CLOUDY    79  71  76 CALM      30.01F
$$

SKY/WX REPORTED AS FAIR MEANS FEW OR NO CLOUDS BELOW
12 THOUSAND FEET.




USA.gov is the U.S. government's official web portal to all federal, state and local government web resources and services.